DW5519 Bristol RI US current weather conditions

sailwx.info

Wind from 216 at 3 knots

Air temperature -15.0° C

Last reported at 2019-Dec-09 23:00 UTC.
Time now 2019-Dec-09 23:46 UTC

Location: N 41°39' W 071°18'.
View on Google Maps.

See reports from other nearby stations

  
Tides and Currents Weather Stations Pressure Air Temp Water Temp Dewpoint Dewpoint Depression Visibility Wind Speed Wind Dir Waves Ship Positions
date/time (UTC)wind fromknots sea level pressurealtimeterstation pressurevisibilityair tempwater tempwave heightnotes
2019-Dec-09 23:00 216 3 -15.0
2019-Dec-09 22:45 280 2 -15.0
2019-Dec-09 22:30 226 3 -15.6
2019-Dec-09 22:15 210 1 -16.7
2019-Dec-09 22:00 208 4 -16.7
2019-Dec-09 21:45 204 8 -16.7
2019-Dec-09 21:30 197 18 -16.7
2019-Dec-09 21:16 280 17 -17.2
2019-Dec-09 21:01 191 19 -17.2
2019-Dec-09 20:46 280 18 -17.8
2019-Dec-09 20:32 188 17 -17.8
2019-Dec-09 20:15 200 15 -17.8
2019-Dec-09 20:01 186 19 -17.8
2019-Dec-09 19:46 280 19 -17.8
2019-Dec-09 19:30 197 16 -18.3
2019-Dec-09 19:15 181 16 -18.3
2019-Dec-09 19:00 197 19 -18.3
2019-Dec-09 18:45 184 17 -18.9
2019-Dec-09 18:31 183 14 -19.4
2019-Dec-09 18:15 280 15 -20.0
2019-Dec-09 18:00 280 16 -20.0
2019-Dec-09 17:47 280 16 -20.6
2019-Dec-09 17:17 280 18 -21.1
2019-Dec-09 17:01 280 19 -21.1
2019-Dec-09 16:46 180 18 -21.7
2019-Dec-09 16:31 186 10 -22.2
2019-Dec-09 16:16 189 7 -23.9
2019-Dec-09 16:00 189 9 -23.9
2019-Dec-09 15:45 280 8 -24.4
2019-Dec-09 15:30 280 9 -25.0
2019-Dec-09 15:15 280 10 -25.0
2019-Dec-09 15:00 280 13 -25.6
2019-Dec-09 14:45 280 14 -25.6
2019-Dec-09 14:30 182 6 -26.7
2019-Dec-09 14:16 185 6 -27.2
2019-Dec-09 14:02 280 6 -28.3
2019-Dec-09 13:46 191 9 -28.3
2019-Dec-09 13:32
2019-Dec-09 13:15
2019-Dec-09 13:01
2019-Dec-09 12:45
2019-Dec-09 12:31
2019-Dec-09 12:15
2019-Dec-09 12:00
2019-Dec-09 11:45 203 7 -33.9
2019-Dec-09 11:30 280 8 -34.4
2019-Dec-09 11:15 280 6 -35.6
2019-Dec-09 11:02 200 5 -36.7
2019-Dec-09 10:46 184 5 -37.8
2019-Dec-09 10:31 280 6 -38.3
2019-Dec-09 10:16 189 6 -38.9
2019-Dec-09 10:03 206 6 -38.9
2019-Dec-09 09:46 280 5 -42.8
2019-Dec-09 09:30 191 5 -43.3
2019-Dec-09 09:15 187 5 -43.3
2019-Dec-09 09:03 208 6 -43.9
2019-Dec-09 08:47 186 6 -45.6
2019-Dec-09 08:31 186 5 -45.6
2019-Dec-09 08:17 201 6 -45.6
2019-Dec-09 08:01 199 6 -46.7
2019-Dec-09 07:46 203 7 -48.9
2019-Dec-09 07:31 280 7 -51.7
2019-Dec-09 07:15 280 9 -51.7
2019-Dec-09 07:01 280 11 -52.8
2019-Dec-09 06:45 191 11 -54.4
2019-Dec-09 06:31 211 11 -55.6
2019-Dec-09 06:15 280 11 -56.7
2019-Dec-09 06:00 280 11 -56.7
2019-Dec-09 05:45 199 12 -56.7
2019-Dec-09 05:33 206 9 -57.8
2019-Dec-09 05:17 208 7 -59.4
2019-Dec-09 05:01 206 6 -59.4
2019-Dec-09 04:46 280 7 -60.6
2019-Dec-09 04:31 199 7 -60.6
2019-Dec-09 04:16 206 8 -61.7
2019-Dec-09 04:01 208 8 -61.7
2019-Dec-09 03:46 189 6 -63.3
2019-Dec-09 03:30 280 4 -64.4
2019-Dec-09 03:15 219 3 -65.6
2019-Dec-09 03:00 205 3 -66.7
2019-Dec-09 02:45 206 1 -67.8
2019-Dec-09 02:30 237 0 -67.8
2019-Dec-09 02:15 320 -67.8
2019-Dec-09 02:01 320 -67.8
2019-Dec-09 01:47 002 -67.8
2019-Dec-09 01:31 002 -67.8
2019-Dec-09 01:16 253 -67.8
2019-Dec-09 01:01 253 -67.8
2019-Dec-09 00:17 253 -67.8
2019-Dec-08 23:46 137 -67.8
2019-Dec-08 23:31 137 -67.8
2019-Dec-08 23:16 280 -67.8
2019-Dec-08 23:00 280 -67.8
2019-Dec-08 22:45 280 -67.8
2019-Dec-08 22:31 280 -67.8
2019-Dec-08 22:15 219 -67.8
2019-Dec-08 22:00 222 -67.8
2019-Dec-08 21:45 208 2 -67.8
2019-Dec-08 21:30 280 2 -67.8
2019-Dec-08 21:15 191 3 -67.8
2019-Dec-08 21:02 201 5 -67.8
2019-Dec-08 20:47 280 4 -67.8
2019-Dec-08 20:31 280 4 -67.8
2019-Dec-08 20:16 212 6 -67.8
2019-Dec-08 20:01 280 5 -67.8
2019-Dec-08 19:46 223 5 -67.8
2019-Dec-08 19:30 204 8 -67.8
2019-Dec-08 19:15 192 8 -67.8
2019-Dec-08 19:01 280 7 -67.8
2019-Dec-08 18:46 280 5 -67.8
2019-Dec-08 18:30 280 5 -67.8
2019-Dec-08 18:15 280 7 -67.8
2019-Dec-08 18:00 280 7 -67.8
2019-Dec-08 17:45 280 8 -67.8
2019-Dec-08 17:33 202 7 -67.8
2019-Dec-08 17:16 184 2 -67.8
2019-Dec-08 17:02 224 6 -67.8
2019-Dec-08 16:46 280 6 -67.8
2019-Dec-08 16:31 280 6 -67.8
2019-Dec-08 16:16 191 5 -67.8
2019-Dec-08 16:01 187 5 -67.8
2019-Dec-08 15:45 182 5 -67.8
2019-Dec-08 15:30 280 6 -67.8
2019-Dec-08 15:15 181 6 -67.8
2019-Dec-08 15:00 181 3 -67.8
2019-Dec-08 14:45 178 1 -67.8
2019-Dec-08 14:30 163 1 -67.8
2019-Dec-08 14:15 158 0 -67.8
2019-Dec-08 14:01 110 0 -67.8
2019-Dec-08 13:48 006 -67.8
2019-Dec-08 13:31 006 0 -67.8
2019-Dec-08 00:15 008 4 -67.8
2019-Dec-07 23:45 354 2 -67.8